Location: *
(49.1466°N, 1.6216°E)
Time: 18:07:44
(UTC+00:00)

Nadezhda 3 Rocket - Pass Details

Date: 25 September 2023
Orbit: 956 x 999 km, 82.9° (Epoch: 10 December)

Event Time Altitude Azimuth Distance (km) Brightness Sun altitude
Rises 19:41:49 0° 182° (S) 3,702 6.8 -19.4°
Reaches altitude 10° 19:44:20 10° 182° (S) 2,760 6.2 -19.8°
Maximum altitude 19:50:41 79° 96° (E) 1,022 3.9 -20.7°
Drops below altitude 10° 19:57:04 10° 11° (NNE) 2,779 6.5 -21.7°
Sets 19:59:36 0° 11° (N) 3,730 7.2 -22.0°
